Regional Weather Roundup
Issued by NWS

Home | Current Version | Previous Version | Graphics & Text | Print | Product List | Glossary On
Versions: 1 2 3 4 5 6 7 8 9 10 11 12 13 14 15 16 17 18 19 20 21 22 23 24 25 26 27 28 29 30 31 32 33 34 35 36 37 38 39 40 41 42 43 44 45 46 47 48 49 50
956
ASUS45 KBOU 160610
RWRCO

WEATHER ROUNDUP FOR COLORADO
NATIONAL WEATHER SERVICE DENVER/BOULDER CO
1100 PM MST MON JAN 15 2018

NOTE: "FAIR" INDICATES FEW OR NO CLOUDS BELOW 12000 FEET WITH NO
SIGNIFICANT WEATHER AND/OR OBSTRUCTIONS TO VISIBILITY.

COZ001>005-013-030-031-160700-
...NORTHWEST COLORADO...

CITY           SKY/WX    TMP DP  RH WIND       PRES   REMARKS
CRAIG          FAIR       6  -1  73 E6        30.46R WCI  -4
HAYDEN         FAIR       8   0  69 SE3       30.45R
MEEKER         FAIR      18  10  71 E5        30.43R WCI  11
RABBIT EARS PA FAIR       9   5  85 CALM      30.31R
STEAMBOAT SPGS FAIR       6  -1  71 CALM      30.43R
WALDEN         FAIR      -4 -13  65 SE7       30.42S WCI -18
$$

COZ006>008-011-160700-
...WEST CENTRAL VALLEYS...

CITY           SKY/WX    TMP DP  RH WIND       PRES   REMARKS
GRAND JUNCTION FAIR      29  19  66 NW5       30.38R WCI  24
MONTROSE       FAIR      24  18  77 S9        30.38R WCI  14
EAGLE          FAIR      17   9  70 SE5       30.43R WCI  10
RIFLE          FAIR      25  19  78 CALM      30.41R
DELTA          FAIR      30  20  67 NE3       30.37R
NUCLA          FAIR      30  19  64 CALM      30.36R
$$

COZ017>023-064>068-160700-
...SOUTHWEST COLORADO...

CITY           SKY/WX    TMP DP  RH WIND       PRES   REMARKS
DURANGO        FAIR      22  19  89 CALM      30.26R
CORTEZ         FAIR      34  21  59 VRB5      30.27R WCI  30
PAGOSA SPRINGS FAIR      22  19  86 CALM      30.27R
TELLURIDE      FAIR      22  16  77 SE5       30.31F WCI  16
WOLF CREEK PAS FAIR      18 -11  27 NW3       30.35R
$$

COZ009-010-012-014-032>034-037-058>063-160700-
...CENTRAL COLORADO...

CITY           SKY/WX    TMP DP  RH WIND       PRES   REMARKS
ASPEN          FAIR      15  11  83 CALM      30.34R
BUENA VISTA    CLOUDY    15  10  77 SE6       30.38R WCI   7
COPPER MTN     NOT AVBL
BERTHOUD PASS  FAIR      -2 -13  60 N16G25    30.22R WCI -23
COTTONWOOD PAS NOT AVBL
GUNNISON       FAIR      17  10  74 N7        30.32R WCI   8
KREMMLING      NOT AVBL
LEADVILLE      FAIR       5   0  79 NE10      30.29R WCI -10
MONARCH PASS   FAIR      12   5  73 W14       30.37R WCI  -3
SALIDA         CLOUDY    18  11  74 CALM      30.47S
SUNLIGHT       FAIR      14  10  85 CALM      30.36R
WILKERSON PASS FAIR       9  -8  47 N12G23    30.27R WCI  -6
$$

COZ069>075-160700-
...SAN LUIS VALLEY/SANGRE DE CRISTO MOUNTAINS...

CITY           SKY/WX    TMP DP  RH WIND       PRES   REMARKS
ALAMOSA        FAIR      11   6  81 SE6       30.30R WCI   1
DEL NORTE      FAIR      18   9  70 N6        30.30R WCI   9
LA VETA PASS   FAIR      10   7  85 NE3         N/A
SAGUACHE       FAIR      21  12  68 NW5       30.30R WCI  15
$$

COZ035-036-038>040-160700-
...NORTHERN COLORADO FRONT RANGE...

CITY           SKY/WX    TMP DP  RH WIND       PRES   REMARKS
DENVER INTL AP FAIR      -2 -10  69 SE12      30.51R WCI -20
DMNS CITY PARK NOT AVBL
AURORA         PTCLDY     4  -3  73 SE9       30.50S WCI -11
FRONT RANGE AP FAIR       1  -6  74 SE6       30.52R WCI -11
ERIE MUNI ARPT FAIR       6  -2  70 CALM      30.61R
BOULDER MUN AP CLOUDY    10   0  61 SE6       30.52S WCI   1
CENTENNIAL     FAIR       6   0  76 SE6       30.47S WCI  -4
BROOMFIELD     FAIR       9  -2  61 SE3       30.50S
FORT COLLINS   FAIR       4  -4  69 S8        30.55S WCI  -9
LONGMONT       MOCLDY    10  -1  59 SE3       30.57S
$$

COZ041-046-047-076>085-087-088-160700-
...PIKES PEAK/PALMER DIVIDE AND SOUTHERN FOOTHILLS...

CITY           SKY/WX    TMP DP  RH WIND       PRES   REMARKS
COLO. SPRINGS  LGT SNOW  13   6  74 S8        30.47S WCI   2
A. F. ACADEMY  FLURRIES  10   5  81 CALM      30.42F
SCHRIEVER AFB  FLURRIES  10   5  80 W8        30.46S WCI  -1
CHEYENNE MTN   FLURRIES  11   9  92 CALM      30.35F
ELLICOTT         N/A    N/A N/A N/A CALM        N/A
FALCON         LGT SNOW  10   7  91 SW9       30.43S WCI  -4
FORT CARSON    FLURRIES  12   9  88 S8        30.46F WCI   0
LIMON          FAIR      -4  -9  79 W3        30.52R
MONUMENT HILL  FLURRIES  -4  -8  84 S7        30.41R WCI -18
CANON CITY     FLURRIES  19  18  93 NE6       30.51S WCI  11
WALSENBURG     CLOUDY    14  10  85 CALM      30.47F
TRINIDAD       FAIR      12  10  92 CALM      30.49F
$$

COZ042>045-048>051-090-091-160700-
...NORTHEAST COLORADO...

CITY           SKY/WX    TMP DP  RH WIND       PRES   REMARKS
GREELEY ARPT   FAIR       0  -5  79 SW6       30.58S WCI -12
AKRON          FAIR      -1  -5  82 NW3       30.56R
BURLINGTON     FAIR      -2  -7  79 NW9       30.60S WCI -18
WRAY           FAIR      -2  -6  84 W5        30.66R WCI -12
YUMA           FAIR      -8 -13  77 W6        30.61S WCI -21
STERLING       FAIR      -4  -8  84 W3        30.61S
HOLYOKE        FAIR       1  -6  71 NW8       30.65R WCI -12
FORT MORGAN    FAIR      -1  -9  67 CALM      30.59S
$$

COZ086-089-092>099-160700-
...SOUTHEAST COLORADO...

CITY           SKY/WX    TMP DP  RH WIND       PRES   REMARKS
PUEBLO         CLOUDY    18   5  57 E8        30.56S WCI   8
LA JUNTA       FAIR      10  -2  58 SE7       30.61R WCI  -1
LAMAR          FAIR       6  -5  60 NE5       30.64S WCI  -3
SPRINGFIELD      N/A      4  -2  76 N6        30.59S WCI  -7
$$




USA.gov is the U.S. government's official web portal to all federal, state and local government web resources and services.